User: anonymous   Login
Location: Banff
(51.1667°N, 115.5667°W)
Time: 13:27:25
(UTC+00:00)
Language:

Tiros 1 - Orbit

View from above orbital plane
View from above orbital plane
View from above satellite
View from above satellite

Ground track
Ground track

The orbit data is extracted from the following two-line orbital elements,

1 00029U 60002B   21342.83961560 -.00000043  00000-0  24579-4 0  9998
2 00029  48.3799 282.8679 0023956  18.9453 341.2345 14.74486923298133
Epoch (UTC): 08 December 2021 20:09:02
Eccentricity: 0.0023956
inclination: 48.3799°
perigee height: 630 km
apogee height: 663 km
right ascension of ascending node: 282.8679°
argument of perigee: 18.9453°
revolutions per day: 14.74486923
mean anomaly at epoch: 341.2345°
orbit number at epoch: 29813

The dashed part of the orbit path shows where the satellite is in the earth's shadow,  

DLR